Tracking 19846 objects as of 18-Sep-2019
HD Live streaming from Space Station
objects crossing your sky now

COSMOS 2269

Track COSMOS 2269 now!
10-day predictions
COSMOS 2269 is classified as:


NORAD ID: 23000
Int'l Code: 1994-011B
Perigee: 1,416.6 km
Apogee: 1,428.0 km
Inclination: 82.6 °
Period: 114.1 minutes
Semi major axis: 7793 km
RCS: 1.1181 m2 (large)
Launch date: February 12, 1994
Source: Commonwealth of Independent States (former USSR) (CIS)
Launch site: PLESETSK MISSILE AND SPACE COMPLEX (PKMTR)
aabbcc
Your satellite tracking list
Your tracking list is empty




NASA's NSSDC Master Catalog

Two Line Element Set (TLE):
1 23000U 94011B   19260.69436387 +.00000006 +00000-0 -23252-4 0  9999
2 23000 082.5632 094.6805 0007313 018.9179 052.2988 12.61881593178839
Source of the keplerian elements: AFSPC